Location: Fontevrault
(47.1823°N, 0.0493°E)
Time: 13:30:11
(UTC+00:00)

Lacrosse 5 - Pass Details

Date: 02 November 2021
Orbit: 714 x 724 km, 57.0° (Epoch: 28 August)

Event Time Altitude Azimuth Distance (km) Brightness Sun altitude
Rises 19:35:53 0° 255° (WSW) 3,134 6.1 -30.0°
Reaches altitude 10° 19:38:22 10° 261° (W) 2,215 5.2 -30.4°
Enters shadow 19:42:41 43° 314° (NW) 1,018 2.9 -31.1°
